TimeMST,TemperatureF,Dew PointF,Humidity,Sea Level PressureIn,VisibilityMPH,Wind Direction,Wind SpeedMPH,Gust SpeedMPH,PrecipitationIn,Events,Conditions,WindDirDegrees,DateUTC
12:15 AM,15.8,3.2,58,30.25,10.0,Calm,Calm,-,N/A,,Clear,0,2012-11-25 07:15:00
12:35 AM,15.8,6.8,68,30.25,10.0,Calm,Calm,-,N/A,,Clear,0,2012-11-25 07:35:00
12:55 AM,17.6,8.6,68,30.24,10.0,Calm,Calm,-,N/A,,Clear,0,2012-11-25 07:55:00
1:15 AM,17.6,5.0,58,30.24,10.0,Calm,Calm,-,N/A,,Clear,0,2012-11-25 08:15:00
1:35 AM,12.2,3.2,67,30.24,10.0,Calm,Calm,-,N/A,,Clear,0,2012-11-25 08:35:00
1:55 AM,12.2,6.8,79,30.24,10.0,Calm,Calm,-,N/A,,Clear,0,2012-11-25 08:55:00
2:15 AM,14.0,6.8,73,30.24,10.0,Calm,Calm,-,N/A,,Clear,0,2012-11-25 09:15:00
2:35 AM,15.8,6.8,68,30.24,10.0,Calm,Calm,-,N/A,,Clear,0,2012-11-25 09:35:00
2:55 AM,12.2,3.2,67,30.23,10.0,Calm,Calm,-,N/A,,Clear,0,2012-11-25 09:55:00
3:15 AM,12.2,6.8,79,30.23,10.0,Calm,Calm,-,N/A,,Clear,0,2012-11-25 10:15:00
3:35 AM,12.2,3.2,67,30.23,10.0,Calm,Calm,-,N/A,,Clear,0,2012-11-25 10:35:00
3:55 AM,12.2,6.8,79,30.23,10.0,Calm,Calm,-,N/A,,Clear,0,2012-11-25 10:55:00
4:15 AM,12.2,3.2,67,30.23,10.0,North,3.5,-,N/A,,Clear,350,2012-11-25 11:15:00
4:35 AM,12.2,5.0,73,30.23,10.0,Calm,Calm,-,N/A,,Clear,0,2012-11-25 11:35:00
4:55 AM,10.4,1.4,67,30.22,10.0,Calm,Calm,-,N/A,,Clear,0,2012-11-25 11:55:00
5:55 AM,10.4,3.2,73,30.22,10.0,Calm,Calm,-,N/A,,Clear,0,2012-11-25 12:55:00
6:15 AM,10.4,3.2,73,30.22,10.0,Calm,Calm,-,N/A,,Clear,0,2012-11-25 13:15:00
6:35 AM,8.6,1.4,73,30.23,10.0,Calm,Calm,-,N/A,,Clear,0,2012-11-25 13:35:00
6:55 AM,6.8,-2.2,67,30.22,10.0,Calm,Calm,-,N/A,,Clear,0,2012-11-25 13:55:00
7:15 AM,8.6,5.0,85,30.23,10.0,Calm,Calm,-,N/A,,Clear,0,2012-11-25 14:15:00
7:55 AM,10.4,6.8,85,30.23,10.0,Calm,Calm,-,N/A,,Clear,0,2012-11-25 14:55:00
8:15 AM,12.2,5.0,73,30.23,10.0,ENE,3.5,-,N/A,,Clear,60,2012-11-25 15:15:00
8:35 AM,15.8,6.8,68,30.23,10.0,Calm,Calm,-,N/A,,Clear,0,2012-11-25 15:35:00
8:55 AM,17.6,8.6,68,30.23,10.0,Calm,Calm,-,N/A,,Clear,0,2012-11-25 15:55:00
9:15 AM,17.6,8.6,68,30.22,10.0,Calm,Calm,-,N/A,,Clear,0,2012-11-25 16:15:00
9:35 AM,21.2,6.8,54,30.22,10.0,Calm,Calm,-,N/A,,Clear,0,2012-11-25 16:35:00
9:55 AM,24.8,12.2,59,30.21,10.0,Calm,Calm,-,N/A,,Clear,0,2012-11-25 16:55:00
10:15 AM,24.8,10.4,54,30.20,10.0,Calm,Calm,-,N/A,,Clear,0,2012-11-25 17:15:00
10:55 AM,30.2,12.2,47,30.18,10.0,Calm,Calm,-,N/A,,Clear,0,2012-11-25 17:55:00
11:15 AM,32.0,10.4,41,30.16,10.0,Calm,Calm,-,N/A,,Clear,0,2012-11-25 18:15:00
11:35 AM,35.6,12.2,38,30.14,10.0,Calm,Calm,-,N/A,,Clear,0,2012-11-25 18:35:00
11:55 AM,35.6,10.4,35,30.12,10.0,Calm,Calm,-,N/A,,Clear,0,2012-11-25 18:55:00
12:15 PM,37.4,12.2,36,30.10,10.0,Calm,Calm,-,N/A,,Clear,0,2012-11-25 19:15:00
12:35 PM,39.2,12.2,33,30.08,10.0,Calm,Calm,-,N/A,,Clear,0,2012-11-25 19:35:00
12:55 PM,41.0,10.4,29,30.07,10.0,Calm,Calm,-,N/A,,Clear,0,2012-11-25 19:55:00
1:15 PM,42.8,12.2,29,30.06,10.0,Calm,Calm,-,N/A,,Clear,0,2012-11-25 20:15:00
1:35 PM,44.6,12.2,27,30.05,10.0,NNE,5.8,-,N/A,,Clear,30,2012-11-25 20:35:00
1:55 PM,44.6,10.4,25,30.04,10.0,Calm,Calm,-,N/A,,Clear,0,2012-11-25 20:55:00
2:15 PM,46.4,12.2,25,30.04,10.0,NNE,3.5,-,N/A,,Clear,20,2012-11-25 21:15:00
2:35 PM,48.2,12.2,24,30.03,10.0,Calm,Calm,-,N/A,,Clear,0,2012-11-25 21:35:00
2:55 PM,50.0,12.2,22,30.02,10.0,East,3.5,-,N/A,,Clear,80,2012-11-25 21:55:00
3:15 PM,51.8,12.2,21,30.02,10.0,WSW,15.0,18.4,N/A,,Clear,250,2012-11-25 22:15:00
3:35 PM,51.8,10.4,19,30.02,10.0,WSW,11.5,17.3,N/A,,Clear,240,2012-11-25 22:35:00
3:55 PM,50.0,8.6,19,30.02,10.0,WSW,15.0,19.6,N/A,,Clear,250,2012-11-25 22:55:00
4:15 PM,48.2,8.6,20,30.02,10.0,West,13.8,19.6,N/A,,Clear,260,2012-11-25 23:15:00
4:35 PM,48.2,6.8,19,30.02,10.0,WNW,12.7,18.4,N/A,,Clear,290,2012-11-25 23:35:00
4:55 PM,46.4,6.8,20,30.03,10.0,WNW,15.0,20.7,N/A,,Clear,290,2012-11-25 23:55:00
5:15 PM,46.4,6.8,20,30.03,10.0,WNW,13.8,-,N/A,,Clear,290,2012-11-26 00:15:00
5:35 PM,46.4,6.8,20,30.03,10.0,NW,9.2,-,N/A,,Clear,310,2012-11-26 00:35:00
5:55 PM,39.2,3.2,22,30.04,10.0,NNW,8.1,-,N/A,,Clear,340,2012-11-26 00:55:00
6:15 PM,39.2,6.8,26,30.04,10.0,SW,3.5,-,N/A,,Clear,220,2012-11-26 01:15:00
6:35 PM,37.4,5.0,26,30.05,10.0,NNW,6.9,-,N/A,,Clear,330,2012-11-26 01:35:00
6:55 PM,35.6,6.8,30,30.05,10.0,NW,3.5,-,N/A,,Clear,310,2012-11-26 01:55:00
7:15 PM,33.8,3.2,28,30.06,10.0,NW,5.8,-,N/A,,Clear,310,2012-11-26 02:15:00
7:35 PM,33.8,6.8,32,30.06,10.0,Calm,Calm,-,N/A,,Clear,0,2012-11-26 02:35:00
7:55 PM,32.0,5.0,32,30.06,10.0,Calm,Calm,-,N/A,,Clear,0,2012-11-26 02:55:00
8:15 PM,30.2,5.0,34,30.07,10.0,Calm,Calm,-,N/A,,Clear,0,2012-11-26 03:15:00
8:35 PM,26.6,3.2,37,30.07,10.0,Calm,Calm,-,N/A,,Clear,0,2012-11-26 03:35:00
8:55 PM,28.4,6.8,40,30.08,10.0,NNW,3.5,-,N/A,,Clear,330,2012-11-26 03:55:00
9:15 PM,28.4,6.8,40,30.09,10.0,Calm,Calm,-,N/A,,Clear,0,2012-11-26 04:15:00
9:35 PM,26.6,5.0,40,30.09,10.0,Calm,Calm,-,N/A,,Clear,0,2012-11-26 04:35:00
9:55 PM,24.8,5.0,43,30.09,10.0,Calm,Calm,-,N/A,,Clear,0,2012-11-26 04:55:00
10:15 PM,24.8,8.6,50,30.09,10.0,NNE,3.5,-,N/A,,Partly Cloudy,20,2012-11-26 05:15:00
10:35 PM,24.8,8.6,50,30.10,10.0,Calm,Calm,-,N/A,,Partly Cloudy,0,2012-11-26 05:35:00
10:55 PM,23.0,3.2,43,30.10,10.0,Calm,Calm,-,N/A,,Clear,0,2012-11-26 05:55:00
11:15 PM,19.4,6.8,58,30.11,10.0,SE,3.5,-,N/A,,Partly Cloudy,140,2012-11-26 06:15:00
11:35 PM,17.6,5.0,58,30.11,10.0,Calm,Calm,-,N/A,,Mostly Cloudy,0,2012-11-26 06:35:00
11:55 PM,21.2,8.6,58,30.11,10.0,Calm,Calm,-,N/A,,Mostly Cloudy,0,2012-11-26 06:55:00